Time,TemperatureF,DewpointF,PressureIn,WindDirection,WindDirectionDegrees,WindSpeedMPH,WindSpeedGustMPH,Humidity,HourlyPrecipIn,Conditions,Clouds,dailyrainin,SoftwareType,DateUTC
2013-03-24 00:00:00,30.4,22.1,29.06,East,90,2.3,2.3,71,0.00,CLR,,0.00,WeatherDisplay:10.37,2013-03-24 05:00:00,
2013-03-24 00:06:00,30.4,22.1,29.06,East,90,2.3,2.3,71,0.00,CLR,,0.00,WeatherDisplay:10.37,2013-03-24 05:06:00,
2013-03-24 00:11:00,30.2,22.3,29.05,NE,45,1.6,0.0,72,0.00,CLR,,0.00,WeatherDisplay:10.37,2013-03-24 05:11:00,
2013-03-24 00:16:00,30.0,22.1,29.05,NW,315,2.3,2.3,72,0.00,CLR,,0.00,WeatherDisplay:10.37,2013-03-24 05:16:00,
2013-03-24 00:21:00,30.2,22.3,29.05,NW,315,3.5,3.5,72,0.00,CLR,,0.00,WeatherDisplay:10.37,2013-03-24 05:21:00,
2013-03-24 00:26:00,30.2,22.3,29.05,North,0,1.1,0.0,72,0.00,CLR,,0.00,WeatherDisplay:10.37,2013-03-24 05:26:00,
2013-03-24 00:31:00,30.2,22.3,29.05,NW,311,1.0,3.0,72,0.00,CLR,,0.00,WeatherDisplay:10.37,2013-03-24 05:31:00,
2013-03-24 00:36:00,30.0,22.1,29.06,NNW,338,3.5,3.5,72,0.00,CLR,,0.00,WeatherDisplay:10.37,2013-03-24 05:36:00,
2013-03-24 00:41:00,29.8,21.9,29.05,North,0,3.5,3.5,72,0.00,CLR,,0.00,WeatherDisplay:10.37,2013-03-24 05:41:00,
2013-03-24 00:46:00,29.8,22.2,29.05,North,0,2.3,2.3,73,0.00,CLR,,0.00,WeatherDisplay:10.37,2013-03-24 05:46:00,
2013-03-24 00:51:00,28.9,21.4,29.04,NW,315,3.5,3.5,73,0.00,CLR,,0.00,WeatherDisplay:10.37,2013-03-24 05:51:00,
2013-03-24 00:56:00,29.7,22.1,29.05,North,0,3.5,3.5,73,0.00,CLR,,0.00,WeatherDisplay:10.37,2013-03-24 05:56:00,
2013-03-24 01:01:00,29.8,22.2,29.04,NW,315,3.5,3.5,73,0.00,CLR,,0.00,WeatherDisplay:10.37,2013-03-24 06:01:00,
2013-03-24 01:06:00,29.8,22.2,29.05,NW,315,3.5,3.5,73,0.00,CLR,,0.00,WeatherDisplay:10.37,2013-03-24 06:06:00,
2013-03-24 01:11:00,29.3,22.0,29.04,North,0,1.1,1.1,74,0.00,CLR,,0.00,WeatherDisplay:10.37,2013-03-24 06:11:00,
2013-03-24 01:16:00,28.9,22.0,29.04,North,0,1.1,1.1,75,0.00,CLR,,0.00,WeatherDisplay:10.37,2013-03-24 06:16:00,
2013-03-24 01:21:00,28.6,21.7,29.04,North,0,1.6,1.6,75,0.00,CLR,,0.00,WeatherDisplay:10.37,2013-03-24 06:21:00,
2013-03-24 01:26:00,28.4,21.8,29.04,North,0,1.1,0.0,76,0.00,CLR,,0.00,WeatherDisplay:10.37,2013-03-24 06:26:00,
2013-03-24 01:31:00,28.4,21.8,29.04,NW,315,1.1,0.0,76,0.00,CLR,,0.00,WeatherDisplay:10.37,2013-03-24 06:31:00,
2013-03-24 01:36:00,28.4,21.8,29.04,NW,315,1.1,0.0,76,0.00,CLR,,0.00,WeatherDisplay:10.37,2013-03-24 06:36:00,
2013-03-24 01:41:00,28.4,22.1,29.04,NNW,332,1.0,2.0,77,0.00,CLR,,0.00,WeatherDisplay:10.37,2013-03-24 06:41:00,
2013-03-24 01:46:00,28.2,21.9,29.03,North,353,1.0,2.0,77,0.00,CLR,,0.00,WeatherDisplay:10.37,2013-03-24 06:46:00,
2013-03-24 01:51:00,28.0,22.1,29.04,North,0,1.0,2.0,78,0.00,CLR,,0.00,WeatherDisplay:10.37,2013-03-24 06:51:00,
2013-03-24 01:56:00,27.9,21.9,29.03,North,0,1.0,2.0,78,0.00,CLR,,0.00,WeatherDisplay:10.37,2013-03-24 06:56:00,
2013-03-24 02:01:00,27.3,21.6,29.03,North,0,1.0,2.0,79,0.00,CLR,,0.00,WeatherDisplay:10.37,2013-03-24 07:01:00,
2013-03-24 02:05:00,27.0,21.3,29.03,North,0,1.0,2.0,79,0.00,CLR,,0.00,WeatherDisplay:10.37,2013-03-24 07:05:00,
2013-03-24 02:10:00,27.7,22.0,29.03,North,0,4.6,4.6,79,0.00,CLR,,0.00,WeatherDisplay:10.37,2013-03-24 07:10:00,
2013-03-24 02:15:00,27.7,22.3,29.03,North,0,2.3,2.3,80,0.00,CLR,,0.00,WeatherDisplay:10.37,2013-03-24 07:15:00,
2013-03-24 02:20:00,27.7,22.3,29.02,NE,45,3.5,3.5,80,0.00,CLR,,0.00,WeatherDisplay:10.37,2013-03-24 07:20:00,
2013-03-24 02:25:00,28.0,22.4,29.02,North,0,3.5,3.5,79,0.00,CLR,,0.00,WeatherDisplay:10.37,2013-03-24 07:25:00,
2013-03-24 02:30:00,28.2,21.9,29.02,NNW,338,3.5,3.5,77,0.00,CLR,,0.00,WeatherDisplay:10.37,2013-03-24 07:30:00,
2013-03-24 02:35:00,27.7,21.4,29.02,North,0,3.5,3.5,77,0.00,CLR,,0.00,WeatherDisplay:10.37,2013-03-24 07:35:00,
2013-03-24 02:40:00,27.0,21.0,29.01,North,0,3.5,3.5,78,0.00,CLR,,0.00,WeatherDisplay:10.37,2013-03-24 07:40:00,
2013-03-24 02:45:00,26.4,20.8,29.01,NW,315,3.5,3.5,79,0.00,CLR,,0.00,WeatherDisplay:10.37,2013-03-24 07:45:00,
2013-03-24 02:50:00,26.2,20.9,29.02,NW,315,2.3,2.3,80,0.00,CLR,,0.00,WeatherDisplay:10.37,2013-03-24 07:50:00,
2013-03-24 02:55:00,25.9,20.6,29.01,North,0,3.5,3.5,80,0.00,CLR,,0.00,WeatherDisplay:10.37,2013-03-24 07:55:00,
2013-03-24 03:00:00,25.0,20.0,29.01,North,0,3.5,3.5,81,0.00,CLR,,0.00,WeatherDisplay:10.37,2013-03-24 08:00:00,
2013-03-24 03:05:00,25.0,20.0,29.01,North,0,3.5,3.5,81,0.00,CLR,,0.00,WeatherDisplay:10.37,2013-03-24 08:05:00,
2013-03-24 03:10:00,25.5,20.8,29.01,NNW,338,3.5,3.5,82,0.00,CLR,,0.00,WeatherDisplay:10.37,2013-03-24 08:10:00,
2013-03-24 03:15:00,25.5,20.8,29.01,North,0,3.5,3.5,82,0.00,CLR,,0.00,WeatherDisplay:10.37,2013-03-24 08:15:00,
2013-03-24 03:20:00,25.3,20.3,29.01,North,0,3.5,3.5,81,0.00,CLR,,0.00,WeatherDisplay:10.37,2013-03-24 08:20:00,
2013-03-24 03:25:00,25.2,20.1,29.02,North,0,1.1,1.1,81,0.00,CLR,,0.00,WeatherDisplay:10.37,2013-03-24 08:25:00,
2013-03-24 03:30:00,25.0,20.0,29.01,North,0,2.3,2.3,81,0.00,CLR,,0.00,WeatherDisplay:10.37,2013-03-24 08:30:00,
2013-03-24 03:35:00,25.0,20.0,29.01,NW,315,3.5,3.5,81,0.00,CLR,,0.00,WeatherDisplay:10.37,2013-03-24 08:35:00,
2013-03-24 03:40:00,25.2,20.1,29.01,NW,315,2.3,2.3,81,0.00,CLR,,0.00,WeatherDisplay:10.37,2013-03-24 08:40:00,
2013-03-24 03:45:00,25.2,19.9,29.01,North,0,3.5,3.5,80,0.00,CLR,,0.00,WeatherDisplay:10.37,2013-03-24 08:45:00,
2013-03-24 03:50:00,25.0,19.7,29.01,NW,315,2.3,2.3,80,0.00,CLR,,0.00,WeatherDisplay:10.37,2013-03-24 08:50:00,
2013-03-24 03:55:00,25.0,20.0,29.00,North,0,3.5,3.5,81,0.00,CLR,,0.00,WeatherDisplay:10.37,2013-03-24 08:55:00,
2013-03-24 04:00:00,25.3,20.3,29.00,NW,315,3.8,3.8,81,0.00,CLR,,0.00,WeatherDisplay:10.37,2013-03-24 09:00:00,
2013-03-24 04:05:00,25.3,20.3,29.01,NW,315,3.5,3.5,81,0.00,CLR,,0.00,WeatherDisplay:10.37,2013-03-24 09:05:00,
2013-03-24 04:10:00,25.0,19.4,29.01,NW,315,3.5,3.5,79,0.00,CLR,,0.00,WeatherDisplay:10.37,2013-03-24 09:10:00,
2013-03-24 04:15:00,24.8,19.2,29.01,North,0,2.3,2.3,79,0.00,CLR,,0.00,WeatherDisplay:10.37,2013-03-24 09:15:00,
2013-03-24 04:20:00,24.3,19.0,29.01,NW,315,2.3,2.3,80,0.00,CLR,,0.00,WeatherDisplay:10.37,2013-03-24 09:20:00,
2013-03-24 04:25:00,24.1,18.8,29.00,NW,315,3.5,3.5,80,0.00,CLR,,0.00,WeatherDisplay:10.37,2013-03-24 09:25:00,
2013-03-24 04:30:00,23.7,18.5,29.00,NW,315,2.3,2.3,80,0.00,CLR,,0.00,WeatherDisplay:10.37,2013-03-24 09:30:00,
2013-03-24 04:35:00,23.2,18.2,29.00,North,0,2.3,2.3,81,0.00,CLR,,0.00,WeatherDisplay:10.37,2013-03-24 09:35:00,
2013-03-24 04:40:00,23.5,18.6,29.00,NW,315,3.5,3.5,81,0.00,CLR,,0.00,WeatherDisplay:10.37,2013-03-24 09:40:00,
2013-03-24 04:45:00,24.1,19.4,29.01,NW,315,5.8,5.8,82,0.00,CLR,,0.00,WeatherDisplay:10.37,2013-03-24 09:45:00,
2013-03-24 04:50:00,24.8,19.8,29.00,North,0,4.6,4.6,81,0.00,CLR,,0.00,WeatherDisplay:10.37,2013-03-24 09:50:00,
2013-03-24 04:55:00,25.0,19.7,29.00,NW,315,4.6,4.6,80,0.00,CLR,,0.00,WeatherDisplay:10.37,2013-03-24 09:55:00,
2013-03-24 05:00:00,25.0,19.4,29.00,North,0,3.5,3.5,79,0.00,CLR,,0.00,WeatherDisplay:10.37,2013-03-24 10:00:00,
2013-03-24 05:05:00,25.0,19.4,29.01,North,0,3.5,3.5,79,0.00,CLR,,0.00,WeatherDisplay:10.37,2013-03-24 10:05:00,
2013-03-24 05:10:00,23.7,17.6,29.00,NW,315,2.3,2.3,77,0.00,CLR,,0.00,WeatherDisplay:10.37,2013-03-24 10:10:00,
2013-03-24 05:15:00,23.2,17.6,29.00,NW,315,2.3,2.3,79,0.00,CLR,,0.00,WeatherDisplay:10.37,2013-03-24 10:15:00,
2013-03-24 05:20:00,23.2,18.2,29.01,North,0,3.5,3.5,81,0.00,CLR,,0.00,WeatherDisplay:10.37,2013-03-24 10:20:00,
2013-03-24 05:25:00,23.2,18.2,29.00,North,0,3.5,3.5,81,0.00,CLR,,0.00,WeatherDisplay:10.37,2013-03-24 10:25:00,
2013-03-24 05:30:00,23.4,18.4,29.00,North,0,2.3,2.3,81,0.00,CLR,,0.00,WeatherDisplay:10.37,2013-03-24 10:30:00,
2013-03-24 05:35:00,23.4,18.4,29.00,North,0,2.3,2.3,81,0.00,CLR,,0.00,WeatherDisplay:10.37,2013-03-24 10:35:00,
2013-03-24 05:40:00,23.4,18.7,29.00,North,0,2.3,2.3,82,0.00,CLR,,0.00,WeatherDisplay:10.37,2013-03-24 10:40:00,
2013-03-24 05:45:00,23.5,18.9,29.00,North,0,2.3,2.3,82,0.00,CLR,,0.00,WeatherDisplay:10.37,2013-03-24 10:45:00,
2013-03-24 05:50:00,23.5,18.9,29.00,North,0,2.3,2.3,82,0.00,CLR,,0.00,WeatherDisplay:10.37,2013-03-24 10:50:00,
2013-03-24 05:55:00,23.2,18.5,29.00,North,0,2.3,2.3,82,0.00,CLR,,0.00,WeatherDisplay:10.37,2013-03-24 10:55:00,
2013-03-24 06:00:00,23.2,18.5,29.00,North,0,3.5,3.5,82,0.00,CLR,,0.00,WeatherDisplay:10.37,2013-03-24 11:00:00,
2013-03-24 06:05:00,23.2,18.5,29.00,North,0,3.5,3.5,82,0.00,CLR,,0.00,WeatherDisplay:10.37,2013-03-24 11:05:00,
2013-03-24 06:10:00,23.5,19.1,29.00,North,0,3.5,3.5,83,0.00,CLR,,0.00,WeatherDisplay:10.37,2013-03-24 11:10:00,
2013-03-24 06:15:00,23.7,19.3,29.00,North,0,3.5,3.5,83,0.00,CLR,,0.00,WeatherDisplay:10.37,2013-03-24 11:15:00,
2013-03-24 06:20:00,23.9,19.2,29.00,North,0,3.5,3.5,82,0.00,CLR,,0.00,WeatherDisplay:10.37,2013-03-24 11:20:00,
2013-03-24 06:25:00,24.1,19.4,29.00,NW,315,3.5,3.5,82,0.00,CLR,,0.00,WeatherDisplay:10.37,2013-03-24 11:25:00,
2013-03-24 06:30:00,24.1,19.4,29.00,North,0,4.6,4.6,82,0.00,CLR,,0.00,WeatherDisplay:10.37,2013-03-24 11:30:00,
2013-03-24 06:35:00,24.1,19.1,29.00,North,0,4.6,4.6,81,0.00,CLR,,0.00,WeatherDisplay:10.37,2013-03-24 11:35:00,
2013-03-24 06:40:00,24.1,19.1,28.99,North,0,4.6,4.6,81,0.00,CLR,,0.00,WeatherDisplay:10.37,2013-03-24 11:40:00,
2013-03-24 06:45:00,23.9,19.2,29.00,NW,315,3.5,3.5,82,0.00,CLR,,0.00,WeatherDisplay:10.37,2013-03-24 11:45:00,
2013-03-24 06:50:00,23.7,19.0,28.99,North,0,3.5,3.5,82,0.00,CLR,,0.00,WeatherDisplay:10.37,2013-03-24 11:50:00,
2013-03-24 06:55:00,23.7,19.0,28.99,NE,45,2.3,2.3,82,0.00,CLR,,0.00,WeatherDisplay:10.37,2013-03-24 11:55:00,
2013-03-24 07:00:00,23.5,18.9,28.99,North,0,1.1,1.1,82,0.00,CLR,,0.00,WeatherDisplay:10.37,2013-03-24 12:00:00,
2013-03-24 07:05:00,23.5,18.9,28.99,North,0,1.6,1.6,82,0.00,CLR,,0.00,WeatherDisplay:10.37,2013-03-24 12:05:00,
2013-03-24 07:10:00,23.7,19.3,28.99,North,0,3.5,3.5,83,0.00,CLR,,0.00,WeatherDisplay:10.37,2013-03-24 12:10:00,
2013-03-24 07:15:00,23.9,19.8,28.99,North,0,3.5,3.5,84,0.00,CLR,,0.00,WeatherDisplay:10.37,2013-03-24 12:15:00,
2013-03-24 07:20:00,24.1,19.7,28.99,NW,315,2.3,2.3,83,0.00,CLR,,0.00,WeatherDisplay:10.37,2013-03-24 12:20:00,
2013-03-24 07:25:00,24.3,19.8,28.99,North,0,3.5,3.5,83,0.00,CLR,,0.00,WeatherDisplay:10.37,2013-03-24 12:25:00,
2013-03-24 07:30:00,24.3,19.8,28.99,North,0,2.3,2.3,83,0.00,CLR,,0.00,WeatherDisplay:10.37,2013-03-24 12:30:00,
2013-03-24 07:35:00,24.4,20.0,28.99,NW,315,4.6,4.6,83,0.00,CLR,,0.00,WeatherDisplay:10.37,2013-03-24 12:35:00,
2013-03-24 07:40:00,24.6,19.9,28.99,NW,315,4.6,4.6,82,0.00,CLR,,0.00,WeatherDisplay:10.37,2013-03-24 12:40:00,
2013-03-24 07:45:00,24.8,20.1,28.99,NW,315,3.5,3.5,82,0.00,CLR,,0.00,WeatherDisplay:10.37,2013-03-24 12:45:00,
2013-03-24 07:50:00,25.0,20.0,28.99,North,0,3.5,3.5,81,0.00,CLR,,0.00,WeatherDisplay:10.37,2013-03-24 12:50:00,
2013-03-24 07:56:00,25.0,20.3,28.99,North,0,3.5,3.5,82,0.00,CLR,,0.00,WeatherDisplay:10.37,2013-03-24 12:56:00,
2013-03-24 08:01:00,25.0,20.0,28.99,NW,315,3.5,3.5,81,0.00,CLR,,0.00,WeatherDisplay:10.37,2013-03-24 13:01:00,
2013-03-24 08:06:00,25.0,20.0,28.99,NW,315,3.5,3.5,81,0.00,CLR,,0.00,WeatherDisplay:10.37,2013-03-24 13:06:00,
2013-03-24 08:11:00,25.5,20.5,28.99,North,0,3.5,3.5,81,0.00,CLR,,0.00,WeatherDisplay:10.37,2013-03-24 13:11:00,
2013-03-24 08:16:00,26.1,20.7,29.00,North,0,3.5,3.5,80,0.00,CLR,,0.00,WeatherDisplay:10.37,2013-03-24 13:16:00,
2013-03-24 08:21:00,26.4,20.8,28.99,North,0,3.5,3.5,79,0.00,CLR,,0.00,WeatherDisplay:10.37,2013-03-24 13:21:00,
2013-03-24 08:26:00,26.6,21.0,28.99,North,0,3.5,3.5,79,0.00,CLR,,0.00,WeatherDisplay:10.37,2013-03-24 13:26:00,
2013-03-24 08:31:00,27.0,21.3,28.99,North,0,4.6,4.6,79,0.00,CLR,,0.00,WeatherDisplay:10.37,2013-03-24 13:31:00,
2013-03-24 08:36:00,27.3,21.4,28.99,North,0,2.3,2.3,78,0.00,CLR,,0.00,WeatherDisplay:10.37,2013-03-24 13:36:00,
2013-03-24 08:41:00,27.5,21.2,28.99,North,0,8.1,8.1,77,0.00,CLR,,0.00,WeatherDisplay:10.37,2013-03-24 13:41:00,
2013-03-24 08:46:00,27.9,21.3,28.99,North,0,3.5,3.5,76,0.00,CLR,,0.00,WeatherDisplay:10.37,2013-03-24 13:46:00,
2013-03-24 08:51:00,28.0,21.4,28.99,North,0,3.5,3.5,76,0.00,CLR,,0.00,WeatherDisplay:10.37,2013-03-24 13:51:00,
2013-03-24 08:56:00,28.2,21.3,28.99,North,0,3.5,3.5,75,0.00,CLR,,0.00,WeatherDisplay:10.37,2013-03-24 13:56:00,
2013-03-24 09:01:00,28.4,21.5,28.99,North,0,3.5,3.5,75,0.00,CLR,,0.00,WeatherDisplay:10.37,2013-03-24 14:01:00,
2013-03-24 09:06:00,28.4,21.5,28.98,North,0,3.5,3.5,75,0.00,CLR,,0.00,WeatherDisplay:10.37,2013-03-24 14:06:00,
2013-03-24 09:11:00,28.6,21.7,28.99,North,0,3.5,3.5,75,0.00,CLR,,0.00,WeatherDisplay:10.37,2013-03-24 14:11:00,
2013-03-24 09:16:00,28.6,21.3,28.99,NW,315,5.8,5.8,74,0.00,CLR,,0.00,WeatherDisplay:10.37,2013-03-24 14:16:00,
2013-03-24 09:21:00,28.6,21.3,28.99,North,0,3.5,3.5,74,0.00,CLR,,0.00,WeatherDisplay:10.37,2013-03-24 14:21:00,
2013-03-24 09:26:00,28.8,21.5,28.99,North,0,3.5,3.5,74,0.00,CLR,,0.00,WeatherDisplay:10.37,2013-03-24 14:26:00,
2013-03-24 09:31:00,28.8,21.5,28.99,North,0,5.8,5.8,74,0.00,CLR,,0.00,WeatherDisplay:10.37,2013-03-24 14:31:00,
2013-03-24 09:36:00,28.9,21.4,28.99,North,0,4.6,4.6,73,0.00,CLR,,0.00,WeatherDisplay:10.37,2013-03-24 14:36:00,
2013-03-24 09:42:00,29.1,21.5,28.99,NE,45,4.6,4.6,73,0.00,CLR,,0.00,WeatherDisplay:10.37,2013-03-24 14:42:00,
2013-03-24 09:47:00,29.3,21.7,28.98,NE,45,8.1,8.1,73,0.00,CLR,,0.00,WeatherDisplay:10.37,2013-03-24 14:47:00,
2013-03-24 09:52:00,29.7,21.7,28.98,East,90,5.8,5.8,72,0.00,CLR,,0.00,WeatherDisplay:10.37,2013-03-24 14:52:00,
2013-03-24 09:57:00,30.2,22.3,28.98,NE,45,3.5,3.5,72,0.00,CLR,,0.00,WeatherDisplay:10.37,2013-03-24 14:57:00,
2013-03-24 10:02:00,30.6,22.3,28.98,North,0,3.5,3.5,71,0.00,CLR,,0.00,WeatherDisplay:10.37,2013-03-24 15:02:00,
2013-03-24 10:07:00,30.6,22.3,28.98,North,0,3.8,3.8,71,0.00,CLR,,0.00,WeatherDisplay:10.37,2013-03-24 15:07:00,
2013-03-24 10:12:00,31.1,22.1,28.98,North,0,3.5,3.8,69,0.00,CLR,,0.00,WeatherDisplay:10.37,2013-03-24 15:12:00,
2013-03-24 10:17:00,31.6,22.6,28.98,NNW,338,5.8,5.8,69,0.00,CLR,,0.00,WeatherDisplay:10.37,2013-03-24 15:17:00,
2013-03-24 10:22:00,31.8,22.8,28.98,North,0,5.8,5.8,69,0.00,CLR,,0.00,WeatherDisplay:10.37,2013-03-24 15:22:00,
2013-03-24 10:27:00,31.8,22.8,28.98,North,0,5.8,5.8,69,0.00,CLR,,0.00,WeatherDisplay:10.37,2013-03-24 15:27:00,
2013-03-24 10:33:00,31.6,22.3,28.98,North,0,8.1,8.1,68,0.00,CLR,,0.00,WeatherDisplay:10.37,2013-03-24 15:33:00,
2013-03-24 10:38:00,31.8,22.8,28.98,North,0,6.9,6.9,69,0.00,CLR,,0.00,WeatherDisplay:10.37,2013-03-24 15:38:00,
2013-03-24 10:43:00,32.2,23.1,28.98,North,0,4.6,4.6,69,0.00,CLR,,0.00,WeatherDisplay:10.37,2013-03-24 15:43:00,
2013-03-24 10:48:00,32.0,23.0,28.98,North,0,10.4,10.4,69,0.00,CLR,,0.00,WeatherDisplay:10.37,2013-03-24 15:48:00,
2013-03-24 10:53:00,31.8,22.5,28.97,NE,45,5.8,5.8,68,0.00,CLR,,0.00,WeatherDisplay:10.37,2013-03-24 15:53:00,
2013-03-24 10:58:00,31.6,22.6,28.98,NE,45,9.2,9.2,69,0.00,CLR,,0.00,WeatherDisplay:10.37,2013-03-24 15:58:00,
2013-03-24 11:03:00,31.6,22.6,28.97,NE,45,6.9,6.9,69,0.00,CLR,,0.00,WeatherDisplay:10.37,2013-03-24 16:03:00,
2013-03-24 11:08:00,32.4,22.6,28.97,North,0,6.9,6.9,67,0.00,CLR,,0.00,WeatherDisplay:10.37,2013-03-24 16:08:00,
2013-03-24 11:13:00,32.5,23.1,28.97,North,0,6.9,6.9,68,0.00,CLR,,0.00,WeatherDisplay:10.37,2013-03-24 16:13:00,
2013-03-24 11:18:00,33.1,22.9,28.97,North,0,8.1,8.1,66,0.00,CLR,,0.00,WeatherDisplay:10.37,2013-03-24 16:18:00,
2013-03-24 11:23:00,33.4,23.3,28.97,East,90,3.5,3.5,66,0.00,CLR,,0.00,WeatherDisplay:10.37,2013-03-24 16:23:00,
2013-03-24 11:28:00,33.8,23.3,28.96,North,0,3.5,3.5,65,0.00,CLR,,0.00,WeatherDisplay:10.37,2013-03-24 16:28:00,
2013-03-24 11:33:00,33.8,22.5,28.96,NE,45,8.1,8.1,63,0.00,CLR,,0.00,WeatherDisplay:10.37,2013-03-24 16:33:00,
2013-03-24 11:38:00,33.6,22.7,28.96,North,0,8.1,8.1,64,0.00,CLR,,0.00,WeatherDisplay:10.37,2013-03-24 16:38:00,
2013-03-24 11:43:00,33.1,21.8,28.96,North,0,5.8,5.8,63,0.00,CLR,,0.00,WeatherDisplay:10.37,2013-03-24 16:43:00,
2013-03-24 11:48:00,33.1,22.2,28.96,North,0,5.8,5.8,64,0.00,CLR,,0.00,WeatherDisplay:10.37,2013-03-24 16:48:00,
2013-03-24 11:53:00,33.4,22.6,28.96,North,0,3.5,4.5,64,0.00,CLR,,0.00,WeatherDisplay:10.37,2013-03-24 16:53:00,
2013-03-24 11:58:00,33.1,21.8,28.96,North,0,10.4,10.4,63,0.00,CLR,,0.00,WeatherDisplay:10.37,2013-03-24 16:58:00,
2013-03-24 12:03:00,33.1,21.8,28.95,North,0,6.9,6.9,63,0.00,CLR,,0.00,WeatherDisplay:10.37,2013-03-24 17:03:00,
2013-03-24 12:08:00,33.1,21.8,28.95,North,0,6.9,6.9,63,0.00,CLR,,0.00,WeatherDisplay:10.37,2013-03-24 17:08:00,
2013-03-24 12:13:00,34.2,22.1,28.95,North,0,6.9,6.9,61,0.00,CLR,,0.00,WeatherDisplay:10.37,2013-03-24 17:13:00,
2013-03-24 12:18:00,34.7,21.4,28.95,NNW,338,8.1,8.1,58,0.00,CLR,,0.00,WeatherDisplay:10.37,2013-03-24 17:18:00,
2013-03-24 12:23:00,34.2,21.3,28.95,North,0,8.1,8.1,59,0.00,CLR,,0.00,WeatherDisplay:10.37,2013-03-24 17:23:00,
2013-03-24 12:28:00,34.5,21.7,28.95,North,0,10.4,10.4,59,0.00,CLR,,0.00,WeatherDisplay:10.37,2013-03-24 17:28:00,
2013-03-24 12:33:00,35.2,22.3,28.95,East,90,4.6,4.6,59,0.00,CLR,,0.00,WeatherDisplay:10.37,2013-03-24 17:33:00,
2013-03-24 12:38:00,36.3,21.7,28.95,North,0,5.8,5.8,55,0.00,CLR,,0.00,WeatherDisplay:10.37,2013-03-24 17:38:00,
2013-03-24 12:43:00,36.0,21.3,28.95,North,0,6.9,6.9,55,0.00,CLR,,0.00,WeatherDisplay:10.37,2013-03-24 17:43:00,
2013-03-24 12:48:00,36.5,21.4,28.94,North,0,4.6,4.6,54,0.00,CLR,,0.00,WeatherDisplay:10.37,2013-03-24 17:48:00,
2013-03-24 12:53:00,37.4,20.9,28.95,North,0,5.8,5.8,51,0.00,CLR,,0.00,WeatherDisplay:10.37,2013-03-24 17:53:00,
2013-03-24 12:58:00,36.9,21.3,28.95,NNW,338,5.8,5.8,53,0.00,CLR,,0.00,WeatherDisplay:10.37,2013-03-24 17:58:00,
2013-03-24 13:03:00,36.7,21.1,28.94,North,0,11.5,11.5,53,0.00,CLR,,0.00,WeatherDisplay:10.37,2013-03-24 18:03:00,
2013-03-24 13:08:00,36.3,21.7,28.95,NE,45,3.5,3.5,55,0.00,CLR,,0.00,WeatherDisplay:10.37,2013-03-24 18:08:00,
2013-03-24 13:13:00,37.0,22.4,28.95,SE,135,3.5,3.5,55,0.00,CLR,,0.00,WeatherDisplay:10.37,2013-03-24 18:13:00,
2013-03-24 13:18:00,37.0,21.0,28.94,East,90,5.8,5.8,52,0.00,CLR,,0.00,WeatherDisplay:10.37,2013-03-24 18:18:00,
2013-03-24 13:23:00,37.2,22.1,28.95,East,90,2.3,2.3,54,0.00,CLR,,0.00,WeatherDisplay:10.37,2013-03-24 18:23:00,
2013-03-24 13:28:00,37.4,21.8,28.94,NE,45,3.5,3.5,53,0.00,CLR,,0.00,WeatherDisplay:10.37,2013-03-24 18:28:00,
2013-03-24 13:33:00,37.6,22.0,28.94,NE,45,2.3,2.3,53,0.00,CLR,,0.00,WeatherDisplay:10.37,2013-03-24 18:33:00,
2013-03-24 13:38:00,37.2,20.7,28.94,NE,45,3.5,3.5,51,0.00,CLR,,0.00,WeatherDisplay:10.37,2013-03-24 18:38:00,
2013-03-24 13:43:00,37.4,21.4,28.94,North,0,3.5,3.5,52,0.00,CLR,,0.00,WeatherDisplay:10.37,2013-03-24 18:43:00,
2013-03-24 13:48:00,37.0,20.6,28.94,NW,315,5.8,5.8,51,0.00,CLR,,0.00,WeatherDisplay:10.37,2013-03-24 18:48:00,
2013-03-24 13:53:00,36.7,21.1,28.94,NE,45,4.6,4.6,53,0.00,CLR,,0.00,WeatherDisplay:10.37,2013-03-24 18:53:00,
2013-03-24 13:58:00,35.6,20.6,28.94,North,0,10.4,10.4,54,0.00,CLR,,0.00,WeatherDisplay:10.37,2013-03-24 18:58:00,
2013-03-24 14:03:00,35.1,21.3,28.94,North,0,5.8,5.8,57,0.00,CLR,,0.00,WeatherDisplay:10.37,2013-03-24 19:03:00,
2013-03-24 14:08:00,35.2,21.5,28.94,North,0,5.8,5.8,57,0.00,CLR,,0.00,WeatherDisplay:10.37,2013-03-24 19:08:00,
2013-03-24 14:13:00,35.1,20.5,28.94,North,0,8.1,8.1,55,0.00,CLR,,0.00,WeatherDisplay:10.37,2013-03-24 19:13:00,
2013-03-24 14:18:00,35.4,20.8,28.93,North,0,6.9,6.9,55,0.00,CLR,,0.00,WeatherDisplay:10.37,2013-03-24 19:18:00,
2013-03-24 14:23:00,35.6,21.0,28.93,North,0,6.9,6.9,55,0.00,CLR,,0.00,WeatherDisplay:10.37,2013-03-24 19:23:00,
2013-03-24 14:28:00,36.0,20.9,28.93,NE,45,6.9,6.9,54,0.00,CLR,,0.00,WeatherDisplay:10.37,2013-03-24 19:28:00,
2013-03-24 14:33:00,35.4,20.8,28.93,North,0,8.1,8.1,55,0.00,CLR,,0.00,WeatherDisplay:10.37,2013-03-24 19:33:00,
2013-03-24 14:38:00,35.2,21.1,28.92,North,0,9.2,9.2,56,0.00,CLR,,0.00,WeatherDisplay:10.37,2013-03-24 19:38:00,
2013-03-24 14:43:00,35.2,21.1,28.92,North,0,8.1,8.1,56,0.00,CLR,,0.00,WeatherDisplay:10.37,2013-03-24 19:43:00,
2013-03-24 14:48:00,35.4,22.9,28.92,North,0,5.8,5.8,60,0.00,CLR,,0.00,WeatherDisplay:10.37,2013-03-24 19:48:00,
2013-03-24 14:53:00,35.6,23.5,28.92,North,0,5.8,5.8,61,0.00,CLR,,0.00,WeatherDisplay:10.37,2013-03-24 19:53:00,
2013-03-24 14:58:00,35.2,23.1,28.92,North,0,8.1,8.1,61,0.00,CLR,,0.00,WeatherDisplay:10.37,2013-03-24 19:58:00,
2013-03-24 15:03:00,34.9,22.8,28.92,North,0,6.9,6.9,61,0.00,CLR,,0.00,WeatherDisplay:10.37,2013-03-24 20:03:00,
2013-03-24 15:08:00,34.7,22.6,28.92,North,0,5.8,5.8,61,0.00,CLR,,0.00,WeatherDisplay:10.37,2013-03-24 20:08:00,
2013-03-24 15:13:00,34.5,23.2,28.92,North,0,5.8,5.8,63,0.00,CLR,,0.00,WeatherDisplay:10.37,2013-03-24 20:13:00,
2013-03-24 15:18:00,34.2,23.2,28.91,North,0,9.2,9.2,64,0.00,CLR,,0.00,WeatherDisplay:10.37,2013-03-24 20:18:00,
2013-03-24 15:23:00,33.8,23.3,28.92,North,0,6.9,6.9,65,0.00,CLR,,0.00,WeatherDisplay:10.37,2013-03-24 20:23:00,
2013-03-24 15:28:00,34.0,23.8,28.91,North,0,5.8,5.8,66,0.00,CLR,,0.00,WeatherDisplay:10.37,2013-03-24 20:28:00,
2013-03-24 15:33:00,34.0,23.4,28.91,North,0,4.6,5.4,65,0.00,CLR,,0.00,WeatherDisplay:10.37,2013-03-24 20:33:00,
2013-03-24 15:38:00,33.6,23.8,28.91,NW,315,7.6,7.6,67,0.00,CLR,,0.00,WeatherDisplay:10.37,2013-03-24 20:38:00,
2013-03-24 15:43:00,33.4,24.0,28.91,North,0,5.8,5.8,68,0.00,CLR,,0.00,WeatherDisplay:10.37,2013-03-24 20:43:00,
2013-03-24 15:48:00,33.4,24.0,28.91,NW,315,5.8,5.8,68,0.00,CLR,,0.00,WeatherDisplay:10.37,2013-03-24 20:48:00,
2013-03-24 15:53:00,33.4,23.7,28.91,North,0,8.1,8.1,67,0.00,CLR,,0.00,WeatherDisplay:10.37,2013-03-24 20:53:00,
2013-03-24 15:58:00,33.6,23.1,28.91,North,0,9.2,9.2,65,0.00,CLR,,0.00,WeatherDisplay:10.37,2013-03-24 20:58:00,
2013-03-24 16:03:00,33.6,23.8,28.91,North,0,8.1,8.1,67,0.00,CLR,,0.00,WeatherDisplay:10.37,2013-03-24 21:03:00,
2013-03-24 16:08:00,33.6,23.5,28.91,North,0,6.9,6.9,66,0.00,CLR,,0.00,WeatherDisplay:10.37,2013-03-24 21:08:00,
2013-03-24 16:13:00,33.6,23.1,28.90,North,0,6.9,6.9,65,0.00,CLR,,0.00,WeatherDisplay:10.37,2013-03-24 21:13:00,
2013-03-24 16:18:00,33.4,24.0,28.90,North,0,6.9,6.9,68,0.00,CLR,,0.00,WeatherDisplay:10.37,2013-03-24 21:18:00,
2013-03-24 16:23:00,33.4,23.3,28.90,North,0,6.9,6.9,66,0.00,CLR,,0.00,WeatherDisplay:10.37,2013-03-24 21:23:00,
2013-03-24 16:28:00,33.8,24.0,28.90,North,0,8.1,8.1,67,0.00,CLR,,0.00,WeatherDisplay:10.37,2013-03-24 21:28:00,
2013-03-24 16:33:00,34.0,23.1,28.90,North,0,9.2,9.2,64,0.00,CLR,,0.00,WeatherDisplay:10.37,2013-03-24 21:33:00,
2013-03-24 16:38:00,34.0,23.1,28.90,North,0,8.1,8.1,64,0.00,CLR,,0.00,WeatherDisplay:10.37,2013-03-24 21:38:00,
2013-03-24 16:43:00,34.0,23.4,28.90,North,0,7.6,7.6,65,0.00,CLR,,0.00,WeatherDisplay:10.37,2013-03-24 21:43:00,
2013-03-24 16:48:00,34.0,22.7,28.90,North,0,6.9,6.9,63,0.00,CLR,,0.00,WeatherDisplay:10.37,2013-03-24 21:48:00,
2013-03-24 16:53:00,34.0,22.3,28.90,North,0,5.8,5.8,62,0.00,CLR,,0.00,WeatherDisplay:10.37,2013-03-24 21:53:00,
2013-03-24 16:58:00,34.0,22.7,28.89,North,0,5.8,5.8,63,0.00,CLR,,0.00,WeatherDisplay:10.37,2013-03-24 21:58:00,
2013-03-24 17:03:00,34.2,22.9,28.89,NE,45,5.8,5.8,63,0.00,CLR,,0.00,WeatherDisplay:10.37,2013-03-24 22:03:00,
2013-03-24 17:08:00,34.5,23.6,28.89,North,0,5.8,5.8,64,0.00,CLR,,0.00,WeatherDisplay:10.37,2013-03-24 22:08:00,
2013-03-24 17:13:00,34.5,23.2,28.90,North,0,5.8,5.8,63,0.00,CLR,,0.00,WeatherDisplay:10.37,2013-03-24 22:13:00,
2013-03-24 17:18:00,34.3,22.7,28.90,NW,315,8.1,8.1,62,0.00,CLR,,0.00,WeatherDisplay:10.37,2013-03-24 22:18:00,
2013-03-24 17:23:00,34.3,24.2,28.89,North,0,4.6,4.6,66,0.00,CLR,,0.00,WeatherDisplay:10.37,2013-03-24 22:23:00,
2013-03-24 17:28:00,34.2,24.0,28.89,North,0,4.6,4.6,66,0.00,CLR,,0.00,WeatherDisplay:10.37,2013-03-24 22:28:00,
2013-03-24 17:33:00,33.8,22.9,28.90,NW,315,5.8,5.8,64,0.00,CLR,,0.00,WeatherDisplay:10.37,2013-03-24 22:33:00,
2013-03-24 17:38:00,33.8,23.3,28.90,North,0,4.6,4.6,65,0.00,CLR,,0.00,WeatherDisplay:10.37,2013-03-24 22:38:00,
2013-03-24 17:43:00,33.6,23.5,28.89,North,0,4.6,4.6,66,0.00,CLR,,0.00,WeatherDisplay:10.37,2013-03-24 22:43:00,
2013-03-24 17:48:00,33.4,22.9,28.89,North,0,5.8,5.8,65,0.00,CLR,,0.00,WeatherDisplay:10.37,2013-03-24 22:48:00,
2013-03-24 17:53:00,33.3,22.4,28.90,NW,315,5.8,5.8,64,0.00,CLR,,0.00,WeatherDisplay:10.37,2013-03-24 22:53:00,
2013-03-24 17:58:00,33.1,22.2,28.89,North,0,7.6,7.6,64,0.00,CLR,,0.00,WeatherDisplay:10.37,2013-03-24 22:58:00,
2013-03-24 18:03:00,32.9,21.7,28.90,North,0,8.1,8.1,63,0.00,CLR,,0.00,WeatherDisplay:10.37,2013-03-24 23:03:00,
2013-03-24 18:08:00,32.7,21.9,28.90,North,0,9.2,9.2,64,0.00,CLR,,0.00,WeatherDisplay:10.37,2013-03-24 23:08:00,
2013-03-24 18:13:00,32.7,22.6,28.90,NW,315,5.8,5.8,66,0.00,CLR,,0.00,WeatherDisplay:10.37,2013-03-24 23:13:00,
2013-03-24 18:18:00,32.5,22.8,28.89,North,0,6.9,6.9,67,0.00,CLR,,0.00,WeatherDisplay:10.37,2013-03-24 23:18:00,
2013-03-24 18:23:00,32.4,23.3,28.90,North,0,8.1,8.1,69,0.00,CLR,,0.00,WeatherDisplay:10.37,2013-03-24 23:23:00,
2013-03-24 18:28:00,32.2,23.1,28.90,North,0,8.1,8.1,69,0.00,CLR,,0.00,WeatherDisplay:10.37,2013-03-24 23:28:00,
2013-03-24 18:33:00,32.2,23.1,28.90,NW,315,10.4,10.4,69,0.00,CLR,,0.00,WeatherDisplay:10.37,2013-03-24 23:33:00,
2013-03-24 18:38:00,32.2,23.1,28.90,NW,315,9.2,9.2,69,0.00,CLR,,0.00,WeatherDisplay:10.37,2013-03-24 23:38:00,
2013-03-24 18:43:00,32.0,23.7,28.90,North,0,9.2,9.2,71,0.00,CLR,,0.00,WeatherDisplay:10.37,2013-03-24 23:43:00,
2013-03-24 18:48:00,31.6,24.0,28.90,NNW,338,8.1,8.1,73,0.00,CLR,,0.00,WeatherDisplay:10.37,2013-03-24 23:48:00,
2013-03-24 18:53:00,31.5,24.1,28.90,North,0,8.1,8.1,74,0.00,CLR,,0.00,WeatherDisplay:10.37,2013-03-24 23:53:00,
2013-03-24 18:58:00,31.3,24.3,28.90,North,0,8.1,8.1,75,0.00,CLR,,0.00,WeatherDisplay:10.37,2013-03-24 23:58:00,
2013-03-24 19:03:00,31.1,24.1,28.91,NW,315,6.9,6.9,75,0.00,CLR,,0.00,WeatherDisplay:10.37,2013-03-25 00:03:00,
2013-03-24 19:08:00,30.7,24.4,28.91,North,0,6.9,6.9,77,0.00,CLR,,0.00,WeatherDisplay:10.37,2013-03-25 00:08:00,
2013-03-24 19:13:00,30.6,24.5,28.91,North,0,13.8,13.8,78,0.00,CLR,,0.00,WeatherDisplay:10.37,2013-03-25 00:13:00,
2013-03-24 19:18:00,30.4,24.3,28.91,NW,315,8.1,8.1,78,0.00,CLR,,0.00,WeatherDisplay:10.37,2013-03-25 00:18:00,
2013-03-24 19:23:00,30.4,24.3,28.92,North,0,8.1,8.1,78,0.00,CLR,,0.00,WeatherDisplay:10.37,2013-03-25 00:23:00,
2013-03-24 19:28:00,30.2,24.2,28.91,NW,315,8.1,8.1,78,0.00,CLR,,0.00,WeatherDisplay:10.37,2013-03-25 00:28:00,
2013-03-24 19:33:00,30.2,24.2,28.92,North,0,11.5,11.5,78,0.00,CLR,,0.00,WeatherDisplay:10.37,2013-03-25 00:33:00,
2013-03-24 19:38:00,30.0,24.0,28.92,NNW,338,11.5,11.5,78,0.00,CLR,,0.00,WeatherDisplay:10.37,2013-03-25 00:38:00,
2013-03-24 19:43:00,30.2,24.2,28.92,North,0,13.8,13.8,78,0.00,CLR,,0.00,WeatherDisplay:10.37,2013-03-25 00:43:00,
2013-03-24 19:48:00,29.8,24.1,28.92,North,0,9.2,9.2,79,0.00,CLR,,0.00,WeatherDisplay:10.37,2013-03-25 00:48:00,
2013-03-24 19:53:00,29.7,24.2,28.92,North,0,10.4,10.4,80,0.00,CLR,,0.00,WeatherDisplay:10.37,2013-03-25 00:53:00,
2013-03-24 19:58:00,29.7,24.2,28.93,North,0,9.2,9.2,80,0.00,CLR,,0.00,WeatherDisplay:10.37,2013-03-25 00:58:00,
2013-03-24 20:03:00,29.5,24.4,28.93,North,0,8.1,8.1,81,0.00,CLR,,0.00,WeatherDisplay:10.37,2013-03-25 01:03:00,
2013-03-24 20:08:00,29.5,24.1,28.93,NNW,338,8.1,8.1,80,0.00,CLR,,0.00,WeatherDisplay:10.37,2013-03-25 01:08:00,
2013-03-24 20:13:00,29.3,23.9,28.93,North,0,10.4,10.4,80,0.00,CLR,,0.00,WeatherDisplay:10.37,2013-03-25 01:13:00,
2013-03-24 20:18:00,29.3,24.2,28.93,NNW,338,10.4,10.4,81,0.00,CLR,,0.00,WeatherDisplay:10.37,2013-03-25 01:18:00,
2013-03-24 20:23:00,29.1,24.0,28.93,NW,315,8.1,8.1,81,0.00,CLR,,0.00,WeatherDisplay:10.37,2013-03-25 01:23:00,
2013-03-24 20:28:00,28.9,23.8,28.94,North,0,8.1,8.1,81,0.00,CLR,,0.00,WeatherDisplay:10.37,2013-03-25 01:28:00,
2013-03-24 20:33:00,28.9,23.8,28.94,NW,315,12.7,12.7,81,0.00,CLR,,0.00,WeatherDisplay:10.37,2013-03-25 01:33:00,
2013-03-24 20:38:00,28.8,23.7,28.94,North,0,8.1,8.1,81,0.00,CLR,,0.00,WeatherDisplay:10.37,2013-03-25 01:38:00,
2013-03-24 20:43:00,28.6,23.2,28.94,North,0,10.4,10.4,80,0.00,CLR,,0.00,WeatherDisplay:10.37,2013-03-25 01:43:00,
2013-03-24 20:48:00,28.4,22.7,28.95,North,0,11.5,11.5,79,0.00,CLR,,0.00,WeatherDisplay:10.37,2013-03-25 01:48:00,
2013-03-24 20:53:00,28.2,22.5,28.94,North,0,12.7,12.7,79,0.00,CLR,,0.00,WeatherDisplay:10.37,2013-03-25 01:53:00,
2013-03-24 20:58:00,28.2,22.5,28.94,NW,315,12.7,12.7,79,0.00,CLR,,0.00,WeatherDisplay:10.37,2013-03-25 01:58:00,
2013-03-24 21:03:00,28.0,22.4,28.95,North,0,10.4,10.4,79,0.00,CLR,,0.00,WeatherDisplay:10.37,2013-03-25 02:03:00,
2013-03-24 21:08:00,27.7,22.0,28.95,North,0,10.4,10.4,79,0.00,CLR,,0.00,WeatherDisplay:10.37,2013-03-25 02:08:00,
2013-03-24 21:13:00,27.7,22.0,28.95,North,0,8.1,8.1,79,0.00,CLR,,0.00,WeatherDisplay:10.37,2013-03-25 02:13:00,
2013-03-24 21:18:00,27.5,21.5,28.95,North,0,9.2,9.2,78,0.00,CLR,,0.00,WeatherDisplay:10.37,2013-03-25 02:18:00,
2013-03-24 21:23:00,27.3,21.4,28.96,North,0,10.4,10.4,78,0.00,CLR,,0.00,WeatherDisplay:10.37,2013-03-25 02:23:00,
2013-03-24 21:28:00,27.1,21.2,28.96,North,0,10.4,10.4,78,0.00,CLR,,0.00,WeatherDisplay:10.37,2013-03-25 02:28:00,
2013-03-24 21:33:00,27.0,21.0,28.96,North,0,6.9,6.9,78,0.00,CLR,,0.00,WeatherDisplay:10.37,2013-03-25 02:33:00,
2013-03-24 21:38:00,27.0,21.0,28.96,North,0,8.1,8.1,78,0.00,CLR,,0.00,WeatherDisplay:10.37,2013-03-25 02:38:00,
2013-03-24 21:43:00,27.0,21.0,28.97,North,0,8.1,8.1,78,0.00,CLR,,0.00,WeatherDisplay:10.37,2013-03-25 02:43:00,
2013-03-24 21:48:00,27.0,21.0,28.96,North,0,12.7,12.7,78,0.00,CLR,,0.00,WeatherDisplay:10.37,2013-03-25 02:48:00,
2013-03-24 21:53:00,27.0,20.7,28.96,NNW,338,10.4,10.4,77,0.00,CLR,,0.00,WeatherDisplay:10.37,2013-03-25 02:53:00,
2013-03-24 21:58:00,26.8,20.2,28.96,North,0,6.9,6.9,76,0.00,CLR,,0.00,WeatherDisplay:10.37,2013-03-25 02:58:00,
2013-03-24 22:03:00,26.4,20.2,28.96,North,0,6.9,6.9,77,0.00,CLR,,0.00,WeatherDisplay:10.37,2013-03-25 03:03:00,
2013-03-24 22:08:00,25.5,19.3,28.96,NE,45,6.9,6.9,77,0.00,CLR,,0.00,WeatherDisplay:10.37,2013-03-25 03:08:00,
2013-03-24 22:13:00,25.0,19.1,28.96,NNW,338,5.8,5.8,78,0.00,CLR,,0.00,WeatherDisplay:10.37,2013-03-25 03:13:00,
2013-03-24 22:18:00,24.8,19.2,28.96,NW,315,3.5,3.5,79,0.00,CLR,,0.00,WeatherDisplay:10.37,2013-03-25 03:18:00,
2013-03-24 22:23:00,24.4,18.9,28.96,North,0,5.4,5.4,79,0.00,CLR,,0.00,WeatherDisplay:10.37,2013-03-25 03:23:00,
2013-03-24 22:28:00,25.0,19.4,28.96,North,0,9.2,9.2,79,0.00,CLR,,0.00,WeatherDisplay:10.37,2013-03-25 03:28:00,
2013-03-24 22:33:00,25.2,19.3,28.96,North,0,5.8,5.8,78,0.00,CLR,,0.00,WeatherDisplay:10.37,2013-03-25 03:33:00,
2013-03-24 22:38:00,25.5,18.7,28.96,North,0,9.2,9.2,75,0.00,CLR,,0.00,WeatherDisplay:10.37,2013-03-25 03:38:00,
2013-03-24 22:43:00,25.5,19.0,28.96,North,0,8.1,8.1,76,0.00,CLR,,0.00,WeatherDisplay:10.37,2013-03-25 03:43:00,
2013-03-24 22:48:00,25.5,18.4,28.96,North,0,10.4,10.4,74,0.00,CLR,,0.00,WeatherDisplay:10.37,2013-03-25 03:48:00,
2013-03-24 22:53:00,25.7,19.2,28.96,North,0,5.8,5.8,76,0.00,CLR,,0.00,WeatherDisplay:10.37,2013-03-25 03:53:00,
2013-03-24 22:58:00,25.7,18.2,28.96,NE,45,9.2,9.2,73,0.00,CLR,,0.00,WeatherDisplay:10.37,2013-03-25 03:58:00,
2013-03-24 23:00:00,25.9,18.1,28.96,North,0,9.2,9.2,72,0.00,CLR,,0.00,WeatherDisplay:10.37,2013-03-25 04:00:00,
2013-03-24 23:05:00,25.7,18.2,28.96,North,0,5.8,5.8,73,0.00,CLR,,0.00,WeatherDisplay:10.37,2013-03-25 04:05:00,
2013-03-24 23:10:00,25.7,18.6,28.96,North,0,6.9,6.9,74,0.00,CLR,,0.00,WeatherDisplay:10.37,2013-03-25 04:10:00,
2013-03-24 23:15:00,25.7,18.6,28.96,North,0,8.3,8.3,74,0.00,CLR,,0.00,WeatherDisplay:10.37,2013-03-25 04:15:00,
2013-03-24 23:20:00,25.7,18.2,28.96,North,0,8.1,8.1,73,0.00,CLR,,0.00,WeatherDisplay:10.37,2013-03-25 04:20:00,
2013-03-24 23:25:00,25.7,17.9,28.96,North,0,8.1,8.1,72,0.00,CLR,,0.00,WeatherDisplay:10.37,2013-03-25 04:25:00,
2013-03-24 23:30:00,25.5,18.4,28.96,North,0,6.9,6.9,74,0.00,CLR,,0.00,WeatherDisplay:10.37,2013-03-25 04:30:00,
2013-03-24 23:35:00,25.5,18.4,28.96,North,0,6.9,6.9,74,0.00,CLR,,0.00,WeatherDisplay:10.37,2013-03-25 04:35:00,
2013-03-24 23:40:00,25.7,17.6,28.96,North,0,8.1,8.1,71,0.00,CLR,,0.00,WeatherDisplay:10.37,2013-03-25 04:40:00,
2013-03-24 23:45:00,25.7,18.2,28.96,North,0,5.8,5.8,73,0.00,CLR,,0.00,WeatherDisplay:10.37,2013-03-25 04:45:00,
2013-03-24 23:50:00,25.7,17.3,28.96,North,0,10.4,10.4,70,0.00,CLR,,0.00,WeatherDisplay:10.37,2013-03-25 04:50:00,
2013-03-24 23:55:00,25.5,17.1,28.96,North,0,8.1,8.1,70,0.00,CLR,,0.00,WeatherDisplay:10.37,2013-03-25 04:55:00,